This is the latest recevied weather packets stored in our database for station/object ED3YAB-7. If no packets are shown the sender has not sent any weather packets the latest 10 day(s).
| Time | Temp. | Humidity | Pressure | Rain* | Wind** | Luminosity | Snow |
|---|---|---|---|---|---|---|---|
| 1778102199 | 12.78° C | 55% | 1018.6 hPa | - | - | - | - |
| 1778100999 | 13.33° C | 53% | 1018.5 hPa | - | - | - | - |
| 1778099806 | 13.89° C | 51% | 1018.3 hPa | - | - | - | - |
| 1778099799 | 13.89° C | 51% | 1018.3 hPa | - | - | - | - |
| 1778098606 | 14.44° C | 50% | 1017.9 hPa | - | - | - | - |
| 1778098599 | 14.44° C | 50% | 1017.9 hPa | - | - | - | - |
| 1778097398 | 15° C | 49% | 1017.6 hPa | - | - | - | - |
| 1778096206 | 15° C | 47% | 1017.3 hPa | - | - | - | - |
| 1778096198 | 15° C | 47% | 1017.3 hPa | - | - | - | - |
| 1778095000 | 15.56° C | 44% | 1016.9 hPa | - | - | - | - |
| 1778093798 | 16.67° C | 40% | 1016.6 hPa | - | - | - | - |
| 1778092605 | 25° C | 26% | 1016.2 hPa | - | - | - | - |
| 1778092598 | 25° C | 26% | 1016.2 hPa | - | - | - | - |
| 1778091852 | 28.33° C | 22% | 1016 hPa | - | - | - | - |
| 1778091841 | 28.33° C | 22% | 1016 hPa | - | - | - | - |
| 1778090652 | 33.33° C | 17% | 1015.6 hPa | - | - | - | - |
| 1778090641 | 33.33° C | 17% | 1015.6 hPa | - | - | - | - |
| 1778089441 | 36.67° C | 15% | 1015.5 hPa | - | - | - | - |
| 1778088248 | 37.78° C | 13% | 1015.3 hPa | - | - | - | - |
| 1778088241 | 37.78° C | 13% | 1015.3 hPa | - | - | - | - |
| 1778087048 | 33.89° C | 17% | 1015.2 hPa | - | - | - | - |
| 1778087041 | 33.89° C | 17% | 1015.2 hPa | - | - | - | - |
| 1778085841 | 42.22° C | 11% | 1015.1 hPa | - | - | - | - |
| 1778084648 | 30° C | 20% | 1014.9 hPa | - | - | - | - |
| 1778084641 | 30° C | 20% | 1014.9 hPa | - | - | - | - |
* Rain since midnight (hover to see other rain measurements)
** Current wind speed in m/s (hover to see current wind gust speed)